NOAA 16 DEB, 41052

Orbit data source: Space-Track

NOAA 16 DEB, 41052 is space debris in SSO originally from a launch on Thu, 21 Sep 2000 UTC launched from the Air Force Western Test Range (AFWTR). Debris objects in space refer to the collection of defunct objects orbiting the Earth. Examples of debris include non-operational satellites, rocket bodies, and fragments generated from explosions, collisions, or faulty payload assembly.

Loading next visibility...
Identifier
41052, 2000-055K
Orbit
SSO
Country
Flag of USUS
Related business
Manufacturer
Unknown
Mission
Spacecraft
Bus & Motor
Unknown
Mass
Unknown
Launch date (UTC)
2000-09-21 (25 years ago)
Launch vehicle
Unknown
Launch site
Air Force Western Test Range (AFWTR)
Object type
Payload
Rocket body
Debris
Shape & HBR
Unknown shape, 0.1 m
Radar Cross Section
Small (<0.1 m²)

Expand to show TLE details & history
Last TLE update: 1 day ago

TLE from 1 day ago
0 NOAA 16 DEB
1 41052U 00055K   25297.97598120  .00001268  00000-0  67647-3 0  9998
2 41052  98.6141 314.8434 0164407 137.0476 224.3668 14.08254107508590
Epoch: 2025-10-24T23:25Z
TLE epoch observation values (Epoch: 2025-10-24T23:25:24.775Z)
Latitude
-0.00005°
Longitude
-70.12298°
Altitude
954.347 km
Speed
7.331 km/s
True Right ascension
20h 59m 22s
True Declination
0° 00' 00"
Sunlit
Object was in daylight at epoch
Visualization orbit readout
Latitude
Unknown
Longitude
Unknown
Altitude
Unknown
Speed
Unknown
Apparent Right ascension
Unknown
Apparent Declination
Unknown
Sunlit
N/A
Visualization observer readout
Local Sidereal Time
19:14:30
Azimuth
Unknown
Elevation
Unknown
Doppler factor
Unknown
Orbital elements
Apogee altitude
981.562 km
Perigee altitude
743.479 km
Semi-major axis
7,240.658 km
Eccentricity
0.01644
Inclination
98.6141°
RAAN
314.8434°
Arg. of periapsis
137.0476°
True anomaly
223.06863°
Mean anomaly
224.3668°
Eccentric anomaly
223.71581°
Mean motion
3.5227 °/min
Orbital period
102.19 mins
BSTAR
0.00067647
Loading maneuver chart data...
Computing Atmospheric mass density...

Documentation

Showing up to 5 results
|